{"data":{"norad_id":53166,"epoch":"2026-09-20T04:00:03.000096Z","epoch_age_seconds":100946,"freshness":"FRESH","line1":"1 53166U 22083AL  26263.16670139  .00094509  00000+0  25355-2 0  9996","line2":"2 53166  53.1605 335.2493 0001007 101.2091  79.3230 15.37201161  5831","mean_motion":15.37201161,"eccentricity":0.0001007,"inclination_deg":53.1605,"raan_deg":335.2493,"arg_perigee_deg":101.2091,"mean_anomaly_deg":79.323,"bstar":0.0025355,"rev_number":583,"period_min":93.676744237119,"perigee_km":453.70220928026,"apogee_km":455.07828026736,"semimajor_km":6832.5272447738,"source":"CELESTRAK","updated_at":"2026-09-20T09:00:40.184700Z"}}